sat.trackr.live / text

‹ back to catalog

STARLINK-31332

NORAD 59566 · 2024-076C

PAYLOAD ACTIVE UNKNOWN

§ Identity

Operator
Country
US
Launch date
2024-04-23
Launch site
AFETR
Launch vehicle
Mass (kg)
RCS (m²)

Purposes: comms

External: N2YO · Heavens-Above · Gunter

§ Orbital elements

Epoch: 2026-05-25T02:46:38.250336Z

Period
94.27 min
Inclination
43.0009°
Eccentricity
0.0001242
Mean motion
15.27574639 rev/d
Perigee alt
482.2 km
Apogee alt
483.9 km
Semi-major
6,861.2 km
B*
4.9292e-5
RAAN
297.1611°
Arg perigee
281.9170°
Mean anomaly
78.1543°
Rev number
11,819

§ Raw data

STARLINK-313321 59566U 24076C   26145.11572049  .00001094  00000+0  49292-4 0  99902 59566  43.0009 297.1611 0001242 281.9170  78.1543 15.27574639118190

JSON: /api/v1/satellites/59566 · /tle

For live sub-satellite position, see the globe view (requires WebGL).

§ Visibility from observer

Set your observer location to see the next 7 days of passes ≥ 10°. The values pass through the URL so the page stays shareable.

No JS? Fill the form by hand. The geolocation button needs JavaScript.